This is the latest recevied weather packets stored in our database for station/object F4IEI-10. If no packets are shown the sender has not sent any weather packets the latest 10 day(s).
| Time | Temp. | Humidity | Pressure | Rain* | Wind** | Luminosity | Snow |
|---|---|---|---|---|---|---|---|
| 1778171330 | 16.11° C | 64% | 1015.8 hPa | - | - | - | - |
| 1778170429 | 16.11° C | 66% | 1015.8 hPa | - | - | - | - |
| 1778169529 | 16.11° C | 66% | 1015.9 hPa | - | - | - | - |
| 1778168629 | 15.56° C | 67% | 1015.9 hPa | - | - | - | - |
| 1778167729 | 15.56° C | 65% | 1015.9 hPa | - | - | - | - |
| 1778166829 | 16.11° C | 65% | 1015.9 hPa | - | - | - | - |
| 1778165929 | 16.11° C | 64% | 1015.9 hPa | - | - | - | - |
| 1778165029 | 15.56° C | 61% | 1015.9 hPa | - | - | - | - |
| 1778164129 | 16.11° C | 63% | 1016.2 hPa | - | - | - | - |
| 1778163229 | 15.56° C | 64% | 1016.3 hPa | - | - | - | - |
| 1778162329 | 15.56° C | 65% | 1016.3 hPa | - | - | - | - |
| 1778161429 | 16.11° C | 66% | 1016.4 hPa | - | - | - | - |
| 1778160529 | 16.11° C | 64% | 1016.3 hPa | - | - | - | - |
| 1778159629 | 17.22° C | 68% | 1016.3 hPa | - | - | - | - |
| 1778158729 | 16.11° C | 71% | 1016.3 hPa | - | - | - | - |
| 1778157825 | 15° C | 70% | 1016.4 hPa | - | - | - | - |
| 1778156929 | 15° C | 71% | 1016.2 hPa | - | - | - | - |
| 1778156025 | 15° C | 69% | 1016.4 hPa | - | - | - | - |
| 1778155125 | 15.56° C | 65% | 1016.5 hPa | - | - | - | - |
| 1778154225 | 15.56° C | 66% | 1016.4 hPa | - | - | - | - |
| 1778153329 | 16.11° C | 66% | 1016.4 hPa | - | - | - | - |
| 1778152424 | 18.89° C | 69% | 1016.3 hPa | - | - | - | - |
| 1778151524 | 17.22° C | 64% | 1016.4 hPa | - | - | - | - |
| 1778150624 | 16.11° C | 65% | 1016.5 hPa | - | - | - | - |
| 1778149728 | 15° C | 71% | 1016.6 hPa | - | - | - | - |
* Rain since midnight (hover to see other rain measurements)
** Current wind speed in m/s (hover to see current wind gust speed)